GOES 8 [-]

Last updated on Fri Dec 29 2023 00:02:21 GMT+0000 (Coordinated Universal Time)

1 23051U 94022A 23362.52871428 -.00000252 00000+0 00000+0 0 9999 2 23051 13.6535 20.2550 0002560 36.9553 0.2534 0.98906430115206
UTC large
Height (km)
Speed (km/s)
/
Latitude / Longitude
Inclination (degrees)
Orbital Period (minutes)
Azimuth
Elevation
Range (km)
Doppler Factor

Next 0 passes for location: London (51.5072 / 0.1276)

Sorry there are no passes over London.